Regional Weather Roundup
Issued by NWS

Home | Current Version | Previous Version | Text Only | Print | Product List | Glossary On
Versions: 1 2 3 4 5 6 7 8 9 10 11 12 13 14 15 16 17 18 19 20 21 22 23 24 25 26 27 28 29 30 31 32 33 34 35 36 37 38 39 40 41 42 43 44 45 46 47 48 49 50
000
ASUS44 KJAN 281810
RWRMS

MISSISSIPPI HOURLY WEATHER ROUNDUP
NATIONAL WEATHER SERVICE JACKSON MS
100 PM CDT SAT MAR 28 2015

NOTE: "FAIR: INDICATES FEW OR NO CLOUDS BELOW 12,000 FEET WITH NO
SIGNIFICANT WEATHER AND/OR OBSTRUCTIONS TO VISIBILITY.

MSZ001>002-007>008-010>013-018>021-025>028-034>036-281900-
NORTHWEST MISSISSIPPI

CITY           SKY/WX    TMP DP  RH WIND       PRES   REMARKS
CLARKSDALE     CLOUDY    41  25  52 NE13      30.32F
CLEVELAND      CLOUDY    46  33  60 E9        30.29F
GREENWOOD      LGT RAIN  49  26  41 NE10      30.30R
6HR MIN TEMP:  35; 6HR MAX TEMP:  49; 6HR PCP: TRACE;

GREENVILLE     CLOUDY    47  33  58 E9        30.27S
6HR MIN TEMP:  40; 6HR MAX TEMP:  47; 6HR PCP: TRACE;

OLIVE BRANCH   CLOUDY    39  27  60 NE6       30.33S WCI  35
OXFORD         PTSUNNY   39  25  56 NE5       30.34S
TUNICA         PTCLDY    39  27  60 E8        30.33F WCI  34
$$

MSZ003>006-009-014>017-022>024-029>033-037>039-281900-
NORTHEAST MISSISSIPPI

CITY           SKY/WX    TMP DP  RH WIND       PRES   REMARKS
COLUMBUS AFB   CLOUDY    43  23  45 NW2       30.30F
6HR MIN TEMP:  35; 6HR MAX TEMP:  43;

CORINTH        FAIR      45  19  36 NW9G16    30.30F
GOLDN TRIANGLE CLOUDY    45  28  53 N5        30.31S
STARKVILLE     CLOUDY    41  30  65 N3        30.31S
TUPELO         CLOUDY    43  20  39 N8        30.31S
6HR MIN TEMP:  31; 6HR MAX TEMP:  43;

$$

MSZ040-058-281900-
CENTRAL MISSISSIPPI

CITY           SKY/WX    TMP DP  RH WIND       PRES   REMARKS
JACKSON INTL   CLOUDY    52  33  48 NE8       30.26F
6HR MIN TEMP:  37; 6HR MAX TEMP:  55;

JACKSON HAWKNS CLOUDY    52  33  48 NE6       30.26F
6HR MIN TEMP:  38; 6HR MAX TEMP:  54;

MERIDIAN KEY   PTSUNNY   53  27  36 E9        30.27F
6HR MIN TEMP:  34; 6HR MAX TEMP:  55;

MERIDIAN NAS   NOT AVBL
RAYMOND        FAIR      55  50  82 VRB5      30.25F
VICKSBURG      CLOUDY    54  37  52 E8        30.24F
6HR MIN TEMP:  40; 6HR MAX TEMP:  54;

$$

MSZ059>079-281900-
SOUTH MISSISSIPPI

CITY           SKY/WX    TMP DP  RH WIND       PRES   REMARKS
BROOKHAVEN     FAIR      57  39  51 CALM      30.26R
HATTIESBURG    PTSUNNY   58  34  40 CALM      30.26F
6HR MIN TEMP:  38; 6HR MAX TEMP:  59;

MCCOMB         MOSUNNY   61  38  42 W6        30.23F
6HR MIN TEMP:  38; 6HR MAX TEMP:  62;

NATCHEZ        PTSUNNY   61  37  41 CALM      30.22F
6HR MIN TEMP:  41; 6HR MAX TEMP:  61;

PINE BELT      PTSUNNY   57  34  41 N3        30.26S
6HR MIN TEMP:  36; 6HR MAX TEMP:  57;

$$

MSZ080>082-281900-
COASTAL MISSISSIPPI

CITY           SKY/WX    TMP DP  RH WIND       PRES   REMARKS
BAY ST LOUIS   SUNNY     61  34  36 S8        30.25F
BILOXI         SUNNY     60  40  47 S13       30.25F
6HR MIN TEMP:  44; 6HR MAX TEMP:  60;

PASCAGOULA     SUNNY     61  34  36 MISG      30.25F
6HR MIN TEMP:  38; 6HR MAX TEMP:  63;

GULFPORT       SUNNY     58  39  49 SE10      30.25S
6HR MIN TEMP:  44; 6HR MAX TEMP:  59;

$$


USA.gov is the U.S. government's official web portal to all federal, state and local government web resources and services.